Location: Haliburton Scout Reserve
(45.0900°N, 78.3200°W)
Time: 15:23:31
(UTC-04:00)

Oscar 19 - Visible Passes

Search period start: 16 May 2022 00:00
Search period end: 26 May 2022 00:00
Orbit: 774 x 789 km, 98.8° (Epoch: 16 May)

Date Brightness Start Highest point End Pass type
(mag) Time Alt. Az. Time Alt. Az. Time Alt. Az.
16 May 11.1 04:31:34 10° NNE 04:36:45 62° ESE 04:41:52 10° S visible
17 May 12.2 03:59:56 10° NNE 04:04:35 32° E 04:09:12 10° SSE visible
18 May 13.1 03:28:55 10° NE 03:32:16 17° E 03:35:35 10° SE visible
18 May 10.8 05:06:51 10° N 05:12:01 66° WNW 05:17:08 10° SSW visible
19 May 11.0 04:34:50 10° NNE 04:40:01 66° ESE 04:45:09 10° S visible
20 May 12.1 04:03:09 10° NNE 04:07:53 34° E 04:12:33 10° SSE visible
21 May 13.0 03:32:03 10° NE 03:35:34 18° E 03:39:03 10° SE visible
22 May 10.9 04:38:05 10° NNE 04:43:17 70° ESE 04:48:26 10° S visible
23 May 12.0 04:06:22 10° NNE 04:11:09 36° E 04:15:53 10° SSE visible
24 May 12.9 03:35:12 10° NE 03:38:51 19° E 03:42:30 10° SE visible
25 May 10.9 04:41:21 10° NNE 04:46:33 75° ESE 04:51:42 10° S visible
